Overview Statistics Trail Chart Weather Telemetry Raw packets
 

This is the latest recevied weather packets stored in our database for station/object W6MAF. If no packets are shown the sender has not sent any weather packets the latest 10 day(s).

<< 63 64 65 66 67 68 69 >>
Time Temp. Humidity Pressure Rain* Wind** Luminosity Snow
1788215739 26.67° C 5% - 0 mm 8.05 m/s, 176° - -
1788215441 26.67° C 5% - 0 mm 8.94 m/s, 166° - -
1788215139 26.67° C 5% - 0 mm 8.49 m/s, 179° - -
1788214841 26.67° C 3% - 0 mm 8.49 m/s, 170° - -
1788214544 26.67° C 5% - 0 mm 4.92 m/s, 203° - -
1788214246 26.67° C 5% - 0 mm 6.26 m/s, 187° - -
1788213948 26.67° C 6% - 0 mm 6.26 m/s, 163° - -
1788213650 26.67° C 6% - 0 mm 7.15 m/s, 173° - -
1788213052 26.67° C 6% - 0 mm 8.94 m/s, 167° - -
1788212754 26.67° C 6% - 0 mm 6.26 m/s, 138° - -
1788212456 26.67° C 6% - 0 mm 5.81 m/s, 159° - -
1788212159 26.67° C 6% - 0 mm 9.39 m/s, 170° - -
1788211861 26.67° C 6% - 0 mm 10.28 m/s, 156° - -
1788211560 26.67° C 7% - 0 mm 6.26 m/s, 162° - -
1788211262 26.67° C 8% - 0 mm 6.71 m/s, 180° - -
1788210965 26.67° C 7% - 0 mm 8.94 m/s, 162° - -
1788210667 26.67° C 6% - 0 mm 7.6 m/s, 190° - -
1788210386 26.67° C 6% - 0 mm 8.49 m/s, 187° - -
1788210071 26.67° C 6% - 0 mm 7.6 m/s, 163° - -
1788209770 26.67° C 6% - 0 mm 8.49 m/s, 172° - -
1788209473 26.67° C 6% - 0 mm 8.94 m/s, 165° - -
1788209175 26.67° C 6% - 0 mm 9.83 m/s, 165° - -
1788208877 26.67° C 6% - 0 mm 9.83 m/s, 155° - -
1788208579 27.22° C 5% - 0 mm 7.15 m/s, 165° - -
1788208282 27.22° C 5% - 0 mm 9.39 m/s, 184° - -

* Rain latest hour (hover to see other rain measurements)
** Current wind speed in m/s (hover to see current wind gust speed)